When you browse on this site, cookies collect data to enhance your experience and personalize the content and advertising you see.
Visit our Privacy Policy to learn more. By continuing to use the site, you agree to this use of cookies and data.
  • In Hungary
  • List of Countries
  • For 7 days
  • Water Temperature
  • Satellite Maps
  • Weather Map
  • News
  • Weather Widgets
  • user-avatar
    Login

    Hourly Weather Kashpero-Mykolaivka

    Today, 20 February, Wednesday

    Time Temperature Precipitation Wind Pressure Humidity
    00:00 -1°C° 0 mm 3 mps 763 mmHg 72%
    01:00 -1°C° 0 mm 3 mps 762 mmHg 74%
    02:00 -1°C° 0 mm 2 mps 762 mmHg 75%
    03:00 -1°C° 0 mm 2 mps 761 mmHg 77%
    04:00 -1°C° 0 mm 2 mps 761 mmHg 79%
    05:00 -1°C° 0 mm 3 mps 760 mmHg 81%
    06:00 0°C° 0 mm 3 mps 760 mmHg 85%
    07:00 0°C° 0 mm 3 mps 759 mmHg 88%
    08:00 +1°C° 0 mm 3 mps 759 mmHg 90%
    09:00 +3°C° 0 mm 4 mps 759 mmHg 84%
    10:00 +5°C° 0 mm 5 mps 759 mmHg 77%
    11:00 +7°C° 0 mm 6 mps 759 mmHg 70%
    12:00 +7°C° 0 mm 6 mps 758 mmHg 71%
    13:00 +7°C° 0 mm 6 mps 758 mmHg 71%
    14:00 +7°C° 0 mm 5 mps 758 mmHg 72%
    15:00 +7°C° 0 mm 4 mps 757 mmHg 75%
    16:00 +6°C° 0 mm 4 mps 757 mmHg 78%
    17:00 +7°C° 0 mm 3 mps 757 mmHg 81%
    18:00 +6°C° 0 mm 2 mps 757 mmHg 82%
    19:00 +6°C° 0 mm 2 mps 757 mmHg 84%
    20:00 +5°C° 0 mm 2 mps 758 mmHg 86%
    21:00 +5°C° 0 mm 2 mps 758 mmHg 86%
    22:00 +4°C° 0 mm 2 mps 758 mmHg 87%
    23:00 +3°C° 0 mm 3 mps 758 mmHg 87%

    Tomorrow, 21 February, Thursday

    Time Temperature Precipitation Wind Pressure Humidity
    00:00 +2°C° 0 mm 3 mps 758 mmHg 86%
    01:00 +2°C° 0 mm 3 mps 759 mmHg 86%
    02:00 +2°C° 0 mm 3 mps 759 mmHg 85%
    03:00 +1°C° 0 mm 4 mps 759 mmHg 84%
    04:00 +1°C° 0 mm 4 mps 759 mmHg 84%
    05:00 +1°C° 0 mm 5 mps 758 mmHg 83%
    06:00 +1°C° 0 mm 5 mps 759 mmHg 81%
    07:00 +1°C° 0 mm 6 mps 759 mmHg 79%
    08:00 +2°C° 0 mm 6 mps 759 mmHg 77%
    09:00 +2°C° 0 mm 7 mps 759 mmHg 70%
    10:00 +2°C° 0 mm 8 mps 759 mmHg 63%
    11:00 +2°C° 0 mm 8 mps 759 mmHg 57%
    12:00 +4°C° 0 mm 8 mps 759 mmHg 52%
    13:00 +3°C° 0 mm 9 mps 759 mmHg 47%
    14:00 +3°C° 0 mm 9 mps 759 mmHg 42%
    15:00 +4°C° 0 mm 7 mps 760 mmHg 43%
    16:00 +3°C° 0 mm 6 mps 760 mmHg 44%
    17:00 +3°C° 0 mm 5 mps 760 mmHg 45%
    18:00 +3°C° 0 mm 4 mps 760 mmHg 49%
    19:00 +2°C° 0 mm 3 mps 761 mmHg 53%
    20:00 +2°C° 0 mm 2 mps 761 mmHg 56%
    21:00 +2°C° 0 mm 2 mps 761 mmHg 58%
    22:00 +1°C° 0 mm 2 mps 761 mmHg 59%
    23:00 +1°C° 0 mm 2 mps 761 mmHg 60%

    Day after tomorrow, 22 February, Friday

    Time Temperature Precipitation Wind Pressure Humidity
    00:00 +1°C° 0 mm 2 mps 761 mmHg 60%
    01:00 +1°C° 0 mm 2 mps 761 mmHg 61%
    02:00 -1°C° 0 mm 2 mps 761 mmHg 61%
    03:00 +1°C° 0 mm 2 mps 760 mmHg 63%
    04:00 +2°C° 0 mm 1 mps 760 mmHg 64%
    05:00 +3°C° 0 mm 1 mps 759 mmHg 65%
    06:00 +3°C° 0.6 mm 1 mps 759 mmHg 71%
    07:00 +2°C° 0.6 mm 2 mps 758 mmHg 77%
    08:00 +2°C° 0.6 mm 2 mps 758 mmHg 84%
    09:00 +2°C° 1.1 mm 2 mps 757 mmHg 87%
    10:00 +2°C° 1.1 mm 2 mps 757 mmHg 89%
    11:00 +2°C° 1.1 mm 2 mps 756 mmHg 92%
    12:00 +1°C° 0.9 mm 3 mps 756 mmHg 92%
    13:00 -1°C° 0.9 mm 5 mps 756 mmHg 92%
    14:00 -2°C° 0.9 mm 6 mps 755 mmHg 92%
    15:00 -4°C° 0.8 mm 7 mps 755 mmHg 91%
    16:00 -6°C° 0.8 mm 9 mps 756 mmHg 91%
    17:00 -9°C° 0.8 mm 10 mps 756 mmHg 90%
    18:00 -10°C° 0.4 mm 10 mps 757 mmHg 87%
    19:00 -12°C° 0.4 mm 10 mps 758 mmHg 84%
    20:00 -12°C° 0.4 mm 10 mps 759 mmHg 81%
    21:00 -12°C° 0 mm 9 mps 760 mmHg 80%
    22:00 -14°C° 0 mm 9 mps 760 mmHg 79%
    23:00 -13°C° 0 mm 8 mps 761 mmHg 78%

    23 February, Saturday

    Time Temperature Precipitation Wind Pressure Humidity
    00:00 -15°C° 0 mm 8 mps 762 mmHg 79%
    01:00 -15°C° 0 mm 8 mps 762 mmHg 80%
    02:00 -15°C° 0 mm 8 mps 763 mmHg 81%
    03:00 -16°C° 0 mm 8 mps 763 mmHg 81%
    04:00 -15°C° 0 mm 7 mps 763 mmHg 81%
    05:00 -15°C° 0 mm 7 mps 764 mmHg 82%
    06:00 -15°C° 0 mm 7 mps 764 mmHg 82%
    07:00 -15°C° 0 mm 7 mps 765 mmHg 83%
    08:00 -15°C° 0 mm 7 mps 766 mmHg 84%
    09:00 -15°C° 0 mm 8 mps 766 mmHg 81%
    10:00 -13°C° 0 mm 8 mps 766 mmHg 78%
    11:00 -12°C° 0 mm 8 mps 767 mmHg 75%
    12:00 -12°C° 0 mm 8 mps 767 mmHg 75%
    13:00 -11°C° 0 mm 8 mps 767 mmHg 74%
    14:00 -11°C° 0 mm 7 mps 767 mmHg 73%
    15:00 -11°C° 0 mm 7 mps 767 mmHg 74%
    16:00 -11°C° 0 mm 7 mps 768 mmHg 74%
    17:00 -11°C° 0 mm 7 mps 768 mmHg 74%
    18:00 -11°C° 0 mm 6 mps 768 mmHg 76%
    19:00 -11°C° 0 mm 6 mps 768 mmHg 77%
    20:00 -11°C° 0 mm 5 mps 769 mmHg 78%
    21:00 -12°C° 0 mm 5 mps 769 mmHg 81%
    22:00 -12°C° 0 mm 4 mps 769 mmHg 84%
    23:00 -12°C° 0 mm 4 mps 769 mmHg 86%

    24 February, Sunday

    Time Temperature Precipitation Wind Pressure Humidity
    00:00 -14°C° 0 mm 4 mps 769 mmHg 87%
    01:00 -14°C° 0 mm 4 mps 769 mmHg 88%
    02:00 -14°C° 0 mm 4 mps 769 mmHg 89%
    03:00 -13°C° 0 mm 3 mps 769 mmHg 89%
    04:00 -13°C° 0 mm 3 mps 769 mmHg 89%
    05:00 -13°C° 0 mm 3 mps 769 mmHg 90%
    06:00 -13°C° 0 mm 3 mps 769 mmHg 89%
    07:00 -14°C° 0 mm 4 mps 770 mmHg 88%
    08:00 -12°C° 0 mm 4 mps 770 mmHg 87%
    09:00 -12°C° 0 mm 4 mps 770 mmHg 84%
    10:00 -12°C° 0 mm 5 mps 770 mmHg 82%
    11:00 -11°C° 0 mm 5 mps 770 mmHg 80%
    12:00 -10°C° 0 mm 5 mps 770 mmHg 80%
    13:00 -10°C° 0 mm 5 mps 770 mmHg 79%
    14:00 -8°C° 0 mm 4 mps 770 mmHg 78%
    15:00 -8°C° 0 mm 4 mps 770 mmHg 79%
    16:00 -8°C° 0 mm 4 mps 770 mmHg 79%
    17:00 -8°C° 0 mm 4 mps 770 mmHg 79%
    18:00 -7°C° 0 mm 3 mps 770 mmHg 81%
    19:00 -7°C° 0 mm 3 mps 770 mmHg 83%
    20:00 -6°C° 0 mm 2 mps 771 mmHg 85%
    21:00 -7°C° 0 mm 2 mps 771 mmHg 86%
    22:00 -8°C° 0 mm 2 mps 771 mmHg 87%
    23:00 -9°C° 0 mm 2 mps 771 mmHg 88%

    25 February, Monday

    Time Temperature Precipitation Wind Pressure Humidity
    00:00 -9°C° 0 mm 2 mps 770 mmHg 88%
    01:00 -9°C° 0 mm 2 mps 770 mmHg 88%
    02:00 -10°C° 0 mm 2 mps 770 mmHg 88%
    03:00 -10°C° 0 mm 2 mps 770 mmHg 87%
    04:00 -9°C° 0 mm 1 mps 769 mmHg 87%
    05:00 -9°C° 0 mm 1 mps 769 mmHg 86%
    06:00 -8°C° 0 mm 1 mps 769 mmHg 85%
    07:00 -8°C° 0 mm 1 mps 769 mmHg 85%
    08:00 -7°C° 0 mm 1 mps 769 mmHg 84%
    09:00 -6°C° 0 mm 1 mps 768 mmHg 82%
    10:00 -5°C° 0 mm 2 mps 768 mmHg 80%
    11:00 -4°C° 0 mm 2 mps 768 mmHg 78%
    12:00 -3°C° 0 mm 2 mps 767 mmHg 80%
    13:00 -2°C° 0 mm 3 mps 766 mmHg 82%
    14:00 -1°C° 0 mm 3 mps 765 mmHg 84%
    15:00 -1°C° 0 mm 3 mps 765 mmHg 85%
    16:00 -1°C° 0 mm 2 mps 764 mmHg 86%
    17:00 -1°C° 0 mm 2 mps 764 mmHg 88%
    18:00 -1°C° 0 mm 2 mps 764 mmHg 88%
    19:00 -2°C° 0 mm 2 mps 764 mmHg 89%
    20:00 -2°C° 0 mm 2 mps 763 mmHg 89%
    21:00 -2°C° 0 mm 2 mps 763 mmHg 90%
    22:00 -4°C° 0 mm 3 mps 762 mmHg 91%
    23:00 -4°C° 0 mm 3 mps 761 mmHg 92%
    Show more